KLM702 SCEL-SAEZ

Flight info

Callsign KLM702
Flight time N/A
Altitude 41000
Route ALBAL7C ALBAL UM424 ASADA ASADA7X
Aircraft B789/H-SDE2E3GHIJ1J3J5P2RWXYZ/LB1D1

Departure

Time 2026-05-03 21:48
Airport Comodoro Arturo Merino Benítez International Airport (SCEL)

Arrival

Time N/A
Airport Ezeiza International Airport - Ministro Pistarini (SAEZ)
Time Latitude Longitude Altitude Speed Heading
2026-05-03 21:21 -33.40376 -70.78940 1569 ft 0 kts 357°
2026-05-03 21:35 -33.40397 -70.78938 1570 ft 4 kts 358°
2026-05-03 21:35 -33.40420 -70.78938 1570 ft 4 kts 13°
2026-05-03 21:36 -33.40440 -70.78952 1570 ft 4 kts 68°
2026-05-03 21:36 -33.40443 -70.78982 1570 ft 4 kts 94°
2026-05-03 21:36 -33.40442 -70.79002 1570 ft 0 kts 87°
2026-05-03 21:38 -33.40442 -70.79000 1570 ft 1 kts 87°
2026-05-03 21:39 -33.40441 -70.78977 1570 ft 4 kts 88°
2026-05-03 21:39 -33.40440 -70.78934 1570 ft 6 kts 88°
2026-05-03 21:39 -33.40434 -70.78879 1570 ft 6 kts 69°
2026-05-03 21:39 -33.40402 -70.78855 1570 ft 6 kts 17°
2026-05-03 21:40 -33.40339 -70.78850 1570 ft 12 kts 359°
2026-05-03 21:40 -33.40231 -70.78852 1570 ft 19 kts 359°
2026-05-03 21:40 -33.40082 -70.78858 1570 ft 23 kts 357°
2026-05-03 21:40 -33.39915 -70.78872 1570 ft 24 kts 356°
2026-05-03 21:41 -33.39744 -70.78879 1570 ft 26 kts 358°
2026-05-03 21:41 -33.39624 -70.78883 1570 ft 26 kts 358°
2026-05-03 21:41 -33.39377 -70.78898 1570 ft 28 kts 358°
2026-05-03 21:41 -33.39183 -70.78907 1570 ft 28 kts 358°
2026-05-03 21:42 -33.38981 -70.78919 1570 ft 29 kts 358°
2026-05-03 21:42 -33.38773 -70.78928 1570 ft 30 kts 357°
2026-05-03 21:42 -33.38633 -70.78935 1570 ft 31 kts 357°
2026-05-03 21:42 -33.38432 -70.78947 1570 ft 21 kts 357°
2026-05-03 21:43 -33.38361 -70.78999 1570 ft 11 kts 283°
2026-05-03 21:43 -33.38360 -70.79141 1570 ft 15 kts 267°
2026-05-03 21:43 -33.38364 -70.79236 1570 ft 19 kts 267°
2026-05-03 21:43 -33.38370 -70.79408 1570 ft 23 kts 267°
2026-05-03 21:44 -33.38378 -70.79615 1570 ft 26 kts 267°
2026-05-03 21:44 -33.38387 -70.79831 1570 ft 26 kts 267°
2026-05-03 21:44 -33.38394 -70.80027 1571 ft 13 kts 267°
2026-05-03 21:44 -33.38358 -70.80100 1572 ft 10 kts 338°
2026-05-03 21:45 -33.38282 -70.80111 1572 ft 13 kts 357°
2026-05-03 21:45 -33.38166 -70.80118 1572 ft 19 kts 358°
2026-05-03 21:45 -33.38026 -70.80125 1572 ft 21 kts 358°
2026-05-03 21:45 -33.37870 -70.80133 1571 ft 24 kts 357°
2026-05-03 21:46 -33.37690 -70.80142 1572 ft 27 kts 358°
2026-05-03 21:46 -33.37492 -70.80153 1572 ft 29 kts 357°
2026-05-03 21:46 -33.37289 -70.80164 1573 ft 27 kts 357°
2026-05-03 21:46 -33.37160 -70.80177 1572 ft 14 kts 344°
2026-05-03 21:47 -33.37110 -70.80248 1575 ft 10 kts 286°
2026-05-03 21:47 -33.37111 -70.80302 1578 ft 4 kts 259°
2026-05-03 21:47 -33.37126 -70.80336 1579 ft 6 kts 232°
2026-05-03 21:47 -33.37170 -70.80373 1579 ft 9 kts 201°
2026-05-03 21:48 -33.37256 -70.80372 1578 ft 23 kts 177°
2026-05-03 21:48 -33.37686 -70.80348 1578 ft 105 kts 178°
2026-05-03 21:48 -33.38651 -70.80296 1738 ft 158 kts 175°
2026-05-03 21:48 -33.39729 -70.80236 2717 ft 155 kts 179°
2026-05-03 21:49 -33.40805 -70.80190 3663 ft 157 kts 180°
2026-05-03 21:49 -33.41941 -70.80123 4553 ft 169 kts 177°
2026-05-03 21:49 -33.43195 -70.80041 5285 ft 193 kts 178°
2026-05-03 21:49 -33.44628 -70.79972 5963 ft 218 kts 178°
2026-05-03 21:50 -33.46237 -70.79888 6617 ft 245 kts 178°
2026-05-03 21:50 -33.48059 -70.79787 7351 ft 277 kts 178°
2026-05-03 21:50 -33.50054 -70.79680 8387 ft 295 kts 178°
2026-05-03 21:50 -33.52170 -70.79565 9151 ft 306 kts 178°
2026-05-03 21:51 -33.54267 -70.79338 10545 ft 308 kts 174°
2026-05-03 21:51 -33.56490 -70.79066 11290 ft 335 kts 177°
2026-05-03 21:51 -33.58905 -70.78832 11981 ft 362 kts 177°
2026-05-03 21:51 -33.61426 -70.78531 13077 ft 371 kts 176°
2026-05-03 21:52 -33.64014 -70.78192 14276 ft 378 kts 177°
2026-05-03 21:52 -33.66639 -70.77869 15513 ft 379 kts 178°
2026-05-03 21:52 -33.69248 -70.77168 16724 ft 390 kts 162°
2026-05-03 21:52 -33.71629 -70.75515 17880 ft 405 kts 145°
2026-05-03 21:53 -33.73552 -70.72973 18847 ft 421 kts 127°
2026-05-03 21:53 -33.75117 -70.69945 19660 ft 431 kts 125°
2026-05-03 21:53 -33.76649 -70.66812 20505 ft 439 kts 124°
2026-05-03 21:53 -33.78198 -70.63613 21312 ft 447 kts 124°
2026-05-03 21:54 -33.79789 -70.60413 22122 ft 454 kts 126°
2026-05-03 21:54 -33.81435 -70.57125 22895 ft 463 kts 126°
2026-05-03 21:54 -33.83094 -70.53767 23672 ft 470 kts 126°
2026-05-03 21:54 -33.84765 -70.50359 24351 ft 477 kts 126°
2026-05-03 21:55 -33.86468 -70.46901 25057 ft 482 kts 126°
2026-05-03 21:55 -33.88195 -70.43409 25662 ft 488 kts 126°
2026-05-03 21:55 -33.89934 -70.39879 26341 ft 492 kts 126°
2026-05-03 21:55 -33.91685 -70.36310 26995 ft 497 kts 126°
2026-05-03 21:56 -33.93457 -70.32702 27615 ft 502 kts 126°
2026-05-03 21:56 -33.95226 -70.29102 28042 ft 508 kts 127°
2026-05-03 21:56 -33.97034 -70.25414 28575 ft 512 kts 127°
2026-05-03 21:56 -33.98846 -70.21708 29230 ft 515 kts 127°
2026-05-03 21:57 -34.00674 -70.17976 29796 ft 520 kts 127°
2026-05-03 21:57 -34.02522 -70.14194 30357 ft 523 kts 127°
2026-05-03 21:57 -34.04383 -70.10384 30857 ft 528 kts 127°
2026-05-03 21:57 -34.06248 -70.06557 31330 ft 532 kts 127°
2026-05-03 21:58 -34.08110 -70.02733 31748 ft 535 kts 127°
2026-05-03 21:58 -34.10000 -69.98849 32281 ft 538 kts 127°
2026-05-03 21:58 -34.11895 -69.94950 32765 ft 540 kts 127°
2026-05-03 21:58 -34.13801 -69.91025 33220 ft 543 kts 127°
2026-05-03 21:59 -34.15713 -69.87083 33675 ft 544 kts 127°
2026-05-03 21:59 -34.17485 -69.83013 34124 ft 553 kts 118°
2026-05-03 21:59 -34.18700 -69.78557 34435 ft 563 kts 107°
2026-05-03 21:59 -34.19424 -69.73881 34715 ft 567 kts 103°
2026-05-03 22:00 -34.20080 -69.69190 35229 ft 565 kts 103°
2026-05-03 22:00 -34.20705 -69.64511 35717 ft 562 kts 103°
2026-05-03 22:00 -34.21329 -69.59918 36249 ft 557 kts 103°
2026-05-03 22:00 -34.21981 -69.55246 36545 ft 559 kts 103°
2026-05-03 22:01 -34.22612 -69.50683 36894 ft 558 kts 103°
2026-05-03 22:01 -34.22692 -69.50095 36966 ft 0 kts 103°